EHI
3 2 2 2 3 3 3 3 3 2 2 1 0 0 0 0 0 0 0 0 0 0 0 0 0 0 0 0 1 2 2 1 0 0 0 0 0 0 0 0 0 0 0
3 2 2 2 3 3 3 3 2 1 1 0 0 0 0 0 0 0 0 0 0 0 0 0 0 0 0 0 0 1 1 0 0 0 0 0 0 0 0 0 0 0 0
2 2 2 3 3 3 3 3 1 0 0 0 0 0 0 0 0 0 0 0 0 0 0 0 0 0 0 0 0 0 0 0 0 0 0 0 0 0 0 0 0 0 0
1 1 2 2 3 3 3 2 1 0 0 1 1 1 0 0 0 0 0 0 0 0 0 0 0 0 0 0 0 0 0 0 0 0 0 0 0 0 0 0 0 0 0
0 0 1 1 1 3 3 3 1 1 0 1 1 1 0 0 0 0 0 0 0 0 0 0 0 0 0 0 0 0 0 0 0 0 0 0 0 0 0 0 0 0 0
0 0 0 0 1 2 3 3 3 2 1 0 0 0 0 0 0 0 0 0 0 0 0 0 0 0 0 0 0 0 0 0 0 0 0 0 0 0 0 0 0 0 0
0 0 0 0 0 1 2 3 3 3 1 1 1 1 1 0 0 0 0 0 0 0 0 0 0 0 0 0 0 0 0 0 0 0 0 0 0 0 0 0 0 0 0
0 0 0 0 0 0 1 2 3 3 3 2 2 2 2 1 0 0 0 0 0 0 0 0 0 0 0 0 0 0 0 0 0 0 0 0 0 0 0 0 0 0 0
0 0 0 0 0 0 0 1 2 2 2 2 3 3 2 1 0 0 0 0 0 0 0 0 0 0 0 0 0 0 0 0 0 0 0 0 0 0 0 0 0 0 0
0 0 0 0 0 0 0 0 1 1 1 1 1 2 2 1 0 0 0 0 0 0 0 0 0 0 0 0 0 0 0 0 0 0 0 0 0 0 0 0 0 0 0
0 0 0 0 0 0 0 0 0 0 0 0 0 1 1 0 0 0 0 0 0 0 0 0 0 0 0 0 0 0 0 0 0 0 0 0 0 0 0 0 0 1 1
0 0 0 0 0 0 0 0 0 0 0 0 0 0 0 0 0 0 0 0 0 0 0 0 0 0 0 0 0 0 0 0 0 0 0 0 0 0 0 0 1 2 2
0 0 0 0 0 0 0 0 0 0 0 0 0 0 0 0 0 0 0 0 0 0 0 0 0 0 0 0 0 0 0 0 0 0 0 0 0 0 0 1 1 2 3
0 0 0 0 0 0 0 0 0 0 0 0 0 0 0 0 0 0 0 0 0 0 0 0 0 0 0 0 0 0 0 0 0 0 0 0 0 0 0 1 1 2 2
0 0 0 0 0 0 0 0 0 0 0 0 0 0 0 0 0 0 0 0 0 0 0 0 0 0 0 0 0 0 0 0 0 0 0 0 0 0 0 0 1 1 1
0 0 0 0 0 0 0 0 0 0 0 0 0 0 0 0 0 0 0 0 0 0 0 0 0 0 0 0 0 0 0 0 0 0 0 0 0 0 0 0 1 1 0
0 0 0 0 0 0 0 0 0 0 0 0 0 0 0 0 0 0 0 0 0 0 0 0 0 0 0 0 0 0 0 0 0 0 0 0 0 0 0 0 0 0 0
0 0 0 0 0 0 0 0 0 0 0 0 0 0 0 0 0 0 0 0 0 0 0 0 0 0 0 0 0 0 0 0 0 0 0 0 0 0 0 0 0 0 0
0 0 0 0 0 0 0 0 0 0 0 0 0 0 0 0 0 0 0 0 0 0 0 0 0 0 0 0 0 0 0 0 0 0 0 0 0 0 0 0 0 0 0
0 0 0 0 0 0 0 0 0 0 0 0 0 0 0 0 0 0 0 0 0 0 0 0 0 0 0 0 0 0 0 0 0 0 0 0 0 0 0 0 0 0 0
0 0 0 0 0 0 0 0 0 0 0 0 0 0 0 0 0 0 0 0 0 0 0 0 0 0 0 0 0 0 0 0 0 0 0 0 0 0 0 0 0 0 0
0 0 0 0 0 0 0 0 0 0 0 0 0 0 0 0 0 0 0 0 0 0 0 0 0 0 0 0 0 0 0 0 0 0 0 0 0 0 0 0 0 0 0
0 0 0 0 0 0 0 0 0 0 0 0 0 0 0 0 0 0 0 0 0 0 0 0 0 0 0 0 0 0 0 0 0 0 0 0 0 0 0 0 0 0 0
1 0 0 0 0 0 0 0 0 0 0 0 0 0 0 0 0 0 0 0 0 0 0 0 0 0 0 0 0 0 0 0 0 0 0 0 0 0 0 0 0 0 0
1 0 0 0 0 0 0 0 0 0 0 0 0 0 0 0 0 0 0 0 0 0 0 0 0 0 0 0 0 0 0 0 0 0 0 0 0 0 0 0 0 0 0
1 0 0 0 0 0 0 0 0 0 0 0 0 0 0 0 0 0 0 0 0 0 0 0 0 0 0 0 0 0 0 0 0 0 0 0 0 0 0 0 0 0 0
Wind_Speed
2 2 2 2 1 1 0 1 1 2 3 3 3 3 3 4 4 4 5 4 4 4 5 4 5 5 4 4 3 4 4 4 5 4 3 2 4 5 3 4 4 4 4
2 3 2 1 1 0 0 1 1 2 3 3 4 4 4 4 4 4 4 4 4 5 5 5 6 5 4 4 4 4 4 4 5 5 4 3 4 4 4 4 4 4 3
1 3 2 1 0 1 1 1 2 2 3 3 4 4 4 4 4 4 4 5 5 5 5 5 5 6 5 4 5 4 4 4 3 4 4 3 3 3 3 4 4 3 4
2 2 1 1 1 1 1 1 2 3 3 3 3 3 4 4 4 5 5 5 5 5 5 5 5 5 5 5 4 4 4 5 4 4 4 4 3 3 3 3 3 3 3
2 2 2 1 1 1 2 2 2 2 3 3 3 3 3 3 3 5 6 6 5 6 5 5 4 4 5 5 5 5 5 5 4 4 4 4 3 3 3 3 4 3 3
3 3 2 2 2 2 1 1 2 2 3 3 3 3 3 3 3 5 7 6 6 6 6 6 5 3 3 5 6 6 6 6 6 6 5 4 4 4 3 4 4 4 4
3 3 2 2 2 2 2 1 1 2 2 3 4 4 4 3 2 5 6 7 7 6 6 6 6 5 5 6 5 7 7 8 7 7 7 7 6 4 4 5 4 5 5
3 3 2 2 2 2 2 2 2 2 2 3 4 4 4 3 2 4 7 7 6 6 6 6 5 6 5 7 7 6 6 5 5 6 6 7 6 5 5 5 5 5 6
3 3 2 2 2 2 2 2 2 2 3 4 4 4 4 4 2 4 7 7 5 6 5 5 5 6 3 5 7 7 7 6 4 6 6 7 7 7 6 5 5 5 5
3 3 2 2 2 2 2 2 2 3 3 4 4 4 5 5 2 4 6 6 6 6 5 4 1 3 4 5 7 7 8 7 7 5 5 7 9 9 10 8 7 6 6
2 2 2 2 2 2 2 2 2 3 3 4 4 4 4 4 2 3 4 5 6 7 6 5 3 1 4 6 7 7 8 9 8 8 7 6 5 5 5 6 6 6 6
2 2 2 2 2 1 1 2 2 3 3 3 3 3 2 2 2 1 3 5 7 7 7 6 5 5 7 9 7 6 8 9 7 6 6 5 5 5 4 4 5 7 7
2 2 1 1 1 1 1 1 2 2 3 3 3 3 3 3 1 2 4 6 6 6 6 7 8 9 9 8 7 8 8 6 5 6 6 5 5 5 5 5 6 6 8
3 2 2 2 2 1 2 2 2 2 3 3 4 4 4 4 4 4 4 4 4 5 6 6 8 10 9 7 6 6 5 4 5 6 6 6 5 4 5 5 5 5 6
3 2 2 2 2 1 2 2 2 2 3 4 4 5 5 5 6 7 6 6 6 6 8 6 5 5 5 4 4 4 5 4 4 5 5 6 5 5 5 5 5 6 7
3 3 2 2 1 2 1 1 1 2 2 3 4 5 4 3 5 7 7 7 7 8 7 5 6 6 7 6 6 5 5 5 5 6 6 6 6 6 6 5 5 5 6
3 2 2 2 2 2 1 2 1 1 4 5 5 4 4 4 5 7 7 8 8 6 4 5 6 6 6 6 6 6 6 6 6 6 6 6 6 6 6 6 5 5 6
3 3 3 3 2 2 2 2 2 2 2 0 3 5 4 4 5 6 7 6 3 2 4 5 6 6 6 6 6 6 6 6 6 7 7 7 7 7 7 7 6 6 6
4 3 3 2 2 2 2 2 2 3 3 3 2 1 3 4 5 4 4 4 5 5 5 5 6 6 6 6 6 7 7 7 7 7 7 7 7 7 7 8 7 7 7
4 3 3 3 2 1 2 2 2 3 3 3 3 4 3 3 3 2 2 4 5 5 5 5 5 6 6 6 6 7 7 7 7 7 7 7 7 7 8 9 8 8 7
4 4 5 3 2 1 2 2 3 3 3 3 3 4 3 4 4 5 5 5 5 5 5 5 5 5 5 6 6 8 9 7 7 8 8 8 8 8 8 8 8 8 7
3 3 3 2 1 1 2 2 2 3 3 4 3 2 1 3 4 4 4 5 4 4 5 5 5 6 6 7 7 8 8 8 8 8 9 8 8 8 8 8 8 8 8
3 3 2 2 1 1 2 2 1 2 2 3 4 4 3 4 4 4 4 4 4 4 5 5 5 6 7 6 6 7 8 8 9 9 10 9 9 8 8 8 9 9 9
3 3 2 2 1 2 1 2 2 2 2 3 3 4 4 4 4 4 4 4 4 4 5 5 6 8 9 8 7 7 8 9 10 9 11 10 9 8 8 9 9 10 9
4 3 2 2 2 1 1 1 2 2 2 3 3 3 4 4 4 4 4 4 5 5 6 6 5 6 8 10 9 9 8 8 7 9 10 9 9 9 9 9 8 9 9
4 3 2 2 1 1 1 1 1 2 2 2 3 3 4 4 4 4 4 4 5 4 5 5 7 8 9 8 9 8 6 7 8 10 10 8 8 7 9 8 10 9 9
Wind_Direction
142 135 124 115 123 140 88 17 358 342 326 322 326 326 329 333 336 333 334 337 334 334 327 325 320 314 308 309 301 292 282 278 277 285 284 287 280 272 273 267 259 248 221
147 150 147 154 169 242 30 357 336 322 312 323 322 323 325 334 336 331 330 338 330 329 327 323 319 310 308 298 296 291 289 285 276 288 292 291 283 274 268 267 262 253 254
163 165 157 186 256 324 327 325 320 308 310 316 318 322 327 331 333 330 329 329 329 321 318 318 316 314 306 306 299 295 294 289 280 276 282 292 283 278 277 266 260 257 260
189 178 167 206 272 275 284 290 291 297 305 310 310 318 322 326 333 331 327 327 325 322 317 315 316 320 319 315 301 294 295 297 286 276 278 277 272 274 267 265 267 251 261
210 201 199 223 262 265 278 283 286 296 304 310 307 310 312 314 343 334 321 318 319 316 314 313 319 327 329 312 310 314 306 295 290 282 276 277 282 283 281 289 283 278 265
220 215 219 242 255 267 272 271 284 303 308 308 302 301 310 334 11 328 307 306 307 310 316 318 312 292 290 262 268 282 294 294 298 292 286 290 289 287 293 284 281 280 277
223 220 222 238 250 261 272 268 279 290 295 299 299 302 313 336 323 308 305 296 298 307 312 313 314 327 315 310 281 248 251 243 252 276 284 288 286 287 286 279 274 278 284
222 223 225 240 246 255 262 276 282 283 291 295 297 302 302 313 304 302 305 285 292 299 299 299 302 309 328 324 310 301 296 290 264 254 273 279 284 288 277 276 277 272 267
214 223 230 242 252 255 256 269 273 278 284 285 289 296 298 303 293 291 300 297 300 304 303 304 305 309 336 319 302 304 304 297 261 240 261 272 278 273 272 270 262 260 266
214 224 231 241 254 255 254 261 266 271 274 284 298 299 299 301 302 288 294 295 308 309 307 302 293 294 318 315 301 302 302 306 309 297 264 251 248 238 225 238 258 269 272
215 220 227 242 253 256 254 260 264 270 282 293 303 301 301 303 286 279 290 297 312 313 315 315 335 338 292 290 284 286 292 300 297 290 282 276 264 247 230 226 239 256 268
209 208 220 246 258 237 238 244 258 274 278 281 292 302 310 309 317 323 280 279 297 302 306 315 334 338 307 290 280 278 283 283 278 282 286 289 288 285 271 259 255 258 261
198 192 213 219 219 230 244 247 253 262 287 306 317 325 335 342 353 225 261 270 269 279 304 309 299 292 290 279 253 261 269 270 282 288 295 297 296 297 289 270 261 257 256
193 191 198 194 198 195 257 268 297 315 322 325 329 332 336 335 348 354 333 315 292 284 300 291 263 256 257 274 283 270 269 289 293 293 296 295 294 289 279 277 273 263 258
192 194 199 195 190 230 252 298 307 341 346 315 327 330 332 335 3 351 325 325 328 331 316 300 311 320 321 325 322 320 317 314 300 294 294 296 295 292 286 280 276 281 279
196 203 209 202 194 235 246 230 172 241 210 232 256 287 320 333 321 316 316 310 304 302 300 315 333 336 337 339 337 333 332 333 325 314 308 305 302 301 301 293 280 277 279
205 207 221 222 224 245 265 286 300 204 207 222 226 239 257 294 302 304 305 299 289 288 296 332 342 345 343 342 339 336 334 337 330 321 317 312 306 304 300 298 297 293 291
209 196 221 229 248 261 279 293 308 321 324 304 193 203 223 252 278 292 298 297 295 288 330 343 344 343 343 343 340 338 337 339 337 330 327 325 322 316 312 309 305 304 300
214 207 217 240 254 273 290 299 314 324 328 341 354 159 205 240 241 262 277 307 337 347 350 348 345 346 346 345 342 340 340 342 342 335 333 330 327 322 320 317 314 318 302
201 190 226 243 243 266 288 306 321 330 336 351 349 1 1 327 326 335 324 336 343 353 357 354 352 350 346 342 339 341 341 341 339 334 330 327 325 320 318 317 317 315 311
191 170 192 226 238 287 304 313 326 331 339 345 354 35 2 329 342 347 347 354 2 359 356 350 347 348 349 345 345 344 341 340 339 336 331 328 326 324 321 318 319 317 318
191 184 192 220 232 275 297 297 315 330 346 346 344 44 150 307 343 352 358 4 7 360 358 351 348 351 354 353 348 341 341 342 341 338 331 328 327 324 323 323 324 324 323
194 186 186 205 241 207 253 280 319 344 347 342 346 357 357 352 352 3 8 9 359 358 357 355 350 354 359 358 350 346 348 347 338 331 326 324 324 324 324 324 322 321 321
185 188 194 203 232 253 271 300 324 349 353 347 352 357 359 2 4 11 4 0 357 0 3 3 1 4 3 357 351 2 12 355 335 325 325 321 321 326 329 328 326 328 324
186 189 196 206 233 254 275 308 338 349 350 348 358 0 359 3 5 5 7 8 5 7 5 7 7 7 6 7 8 10 5 343 330 325 317 316 325 331 331 327 328 328 328
191 184 202 213 233 251 274 313 332 340 354 6 14 8 3 3 9 13 9 8 1 5 9 12 10 8 5 9 15 5 351 337 328 319 311 315 328 338 336 327 330 329 331